Regional Weather Roundup
Issued by NWS Bismarck, ND

Home | Current Version | Previous Version | Text Only | Print | Product List | Glossary On
Versions: 1 2 3 4 5 6 7 8 9 10 11 12 13 14 15 16 17 18 19 20 21 22 23 24 25 26 27 28 29 30 31 32 33 34 35 36 37 38 39 40 41 42 43 44 45 46 47 48 49 50
000
ASUS43 KBIS 281320
RWRBIS

NWR BROADCAST TEXT
NATIONAL WEATHER SERVICE BISMARCK ND
800 AM CDT TUE APR 28 2015

NOTE: "FAIR" INDICATES FEW OR NO CLOUDS BELOW 12,000 FEET WITH NO
SIGNIFICANT WEATHER AND/OR OBSTRUCTIONS TO VISIBILITY.


CITY           SKY/WX    TMP DP  RH WIND       PRES   REMARKS
WILLISTON      PTSUNNY   37  35  92 CALM      30.31S
MINOT          MOSUNNY   40  35  83 SW8       30.28S
MINOT AFB      MOSUNNY   38  38 100 W2        30.28S
BISMARCK       SUNNY     36  34  92 CALM      30.34R FOG
DICKINSON      SUNNY     34  32  92 W3        30.30S
GARRISON         N/A     32  31  96 CALM      30.31R
HETTINGER ARPT SUNNY     31  30  96 CALM      30.34R
JAMESTOWN      SUNNY     40  38  93 CALM      30.30R
BEACH          FAIR      30  30 100 S3        30.33S
CARRINGTON     FAIR      39  39 100 W9        30.32R
CROSBY         FAIR      39  39 100 S13       30.28S
HARVEY           N/A    N/A N/A N/A MISG        N/A
HAZEN          FAIR      32  32 100 W5        30.34R
LINTON         FOG       32  32 100 CALM      30.33S VSB<1/4
MANDAN         FAIR      37  37 100 W8        30.33S
OAKES          FOG       41  41 100 NW8       30.31R VSB 1/4
STANLEY        FAIR      41  41 100 SW5       30.30S
TIOGA          FAIR      37  37 100 SW7       30.33S FOG
WATFORD CITY   FAIR      36  36 100 CALM      30.30S
$$

CITY           SKY/WX    TMP DP  RH WIND       PRES   REMARKS
GRAND FORKS    FOG       43  43 100 CALM      30.30F VSB 1/4
GRAND FORKS AF FOG       39  39 100 S2        30.30F VSB<1/4
DEVILS LAKE    MOSUNNY   43  39  87 W6        30.29R
FARGO          CLOUDY    44  42  93 N13       30.30R
CANDO          FAIR      32  32 100 W3        30.30R FOG
CAVALIER       FOG       34  34 100 CALM      30.31R VSB<1/4
GRAFTON        FOG       39  39 100 SE3       30.32R VSB<1/4
GWINNER        PTSUNNY   46  46 100 N15       30.31R
LANGDON        FAIR      37  37 100 CALM      30.29S
WALHALLA       FAIR      39  39 100 CALM      30.30F
$$

CITY           SKY/WX    TMP DP  RH WIND       PRES   REMARKS
ABERDEEN       MOSUNNY   49  42  77 N12       30.30S
MOBRIDGE       MOSUNNY   41  39  93 NW6       30.31S FOG
BUFFALO          N/A     32  30  92 CALM      30.27R
RAPID CITY     SUNNY     38  35  89 CALM      30.34R
GLASGOW        CLEAR     40  36  86 SE13      30.25F
SIDNEY         PTSUNNY   37  34  87 S8        30.32S
WOLF POINT     PTSUNNY   35  32  88 MISG      30.30S
GLENDIVE       MOSUNNY   36  34  93 S6        30.32S
MILES CITY     MOSUNNY   34  32  92 SE6       30.29S
BAKER          MOSUNNY   30  28  92 CALM      30.33R
$$

CITY           SKY/WX    TMP DP  RH WIND       PRES   REMARKS
BILLINGS       PTCLDY    40  34  79 SW10      30.24S
GREAT FALLS    PTCLDY    43  32  65 S8        30.17S
REGINA         PTSUNNY   41  36  81 SE5       30.22S
ESTEVAN        CLOUDY    37  36  93 SW6       30.27R
$$



USA.gov is the U.S. government's official web portal to all federal, state and local government web resources and services.